Historical Weather Data

Kanab, UT VWS

Date ET
(Inches)
Rain
(Inches)
Temp °F
Humidity
Avg
Wind MPH
Avg
Solar Wm2
Avg
High Ave Low
02/01/2019 12:00 am 0.051 0.00 53.0 41.5 32.0 58 2.1 104
02/02/2019 12:00 am 0.034 0.39 51.0 43.3 35.0 74 4.2 29
02/03/2019 12:00 am 0.065 0.24 48.0 44.0 39.0 74 6.9 113
02/04/2019 12:00 am 0.048 0.07 48.0 40.9 35.0 72 5.9 62
02/05/2019 12:00 am 0.040 0.50 41.0 37.2 31.0 75 7.8 32
02/06/2019 12:00 am 0.046 0.05 29.0 24.9 20.0 68 6.9 142
02/07/2019 12:00 am 0.049 0.00 31.0 22.1 15.0 56 1.4 180
02/08/2019 12:00 am 0.049 0.00 34.0 24.4 17.0 58 2.5 179
02/09/2019 12:00 am 0.048 0.00 40.0 29.6 20.0 60 2.7 124
02/10/2019 12:00 am 0.072 0.11 43.0 33.1 25.0 61 5.8 172
02/11/2019 12:00 am 0.060 0.01 36.0 26.8 18.0 56 3.3 185
02/12/2019 12:00 am 0.063 0.00 43.0 29.5 18.0 53 2.1 174
02/13/2019 12:00 am 0.053 0.02 47.0 36.4 27.0 53 2.9 91
02/14/2019 12:00 am 0.016 0.80 45.0 40.1 35.0 79 2.6 12
02/15/2019 12:00 am 0.061 0.04 47.0 38.6 33.0 74 8.1 97
02/16/2019 12:00 am 0.063 0.05 39.0 32.5 27.0 65 5.1 169
02/17/2019 12:00 am 0.035 0.08 36.0 29.1 25.0 69 1.9 91
02/18/2019 12:00 am 0.023 0.13 33.0 26.4 22.0 79 2.9 53
02/19/2019 12:00 am 0.055 0.00 31.0 21.6 16.0 65 3.4 195
02/20/2019 12:00 am 0.021 0.19 31.0 22.5 13.0 73 3.9 28
02/21/2019 12:00 am 0.012 0.41 31.0 26.6 22.0 85 3.0 11
02/22/2019 12:00 am 0.053 0.00 33.0 23.4 14.0 76 2.5 185
02/23/2019 12:00 am 0.053 0.00 34.0 20.8 8.0 66 2.4 192
02/24/2019 12:00 am 0.062 0.00 38.0 25.9 15.0 67 1.5 208
02/25/2019 12:00 am 0.070 0.00 43.0 31.3 21.0 63 1.3 204
02/26/2019 12:00 am 0.079 0.00 51.0 37.9 26.0 59 1.5 197
02/27/2019 12:00 am 0.089 0.00 54.0 41.9 34.0 55 3.1 191
02/28/2019 12:00 am 0.083 0.00 56.0 43.5 34.0 64 2.8 176